Weather History for PAWS - January, 2013

Change the Weather History Date:

Wednesday, January 30, 2013

  Actual Average Record
Temperature  
Mean Temperature 22 °F -  
Max Temperature 33 °F 22 °F 45 °F (1985)
Min Temperature 12 °F 5 °F -35 °F (1989)
Degree Days  
Heating Degree Days 42    
Moisture  
Dew Point 15 °F    
Average Humidity 81    
Maximum Humidity 93    
Minimum Humidity 52    
Precipitation  
Precipitation 0.17 in - - ()
Sea Level Pressure  
Sea Level Pressure 29.73 in    
Wind  
Wind Speed 3 mph (West)    
Max Wind Speed 10 mph    
Max Gust Speed 16 mph    
Visibility 8 miles    
Events      
Averages and records for this station are not official NWS values.
T = Trace of Precipitation, MM = Missing Value Source: NWS Daily Summary

Daily Weather History Graph

Daily Weather History Graph

Search for Another Location

Airport or City:

Trip Planner

Search our weather history database for the weather conditions in past years. The results will help you decide how hot, cold, wet, or windy it might be!

Date:

Astronomy

Jan. 30, 2013 Rise Set
Actual Time 9:24 AM AKST 4:59 PM AKST
Civil Twilight 8:33 AM AKST 5:50 PM AKST
Nautical Twilight 7:39 AM AKST 6:44 PM AKST
Astronomical Twilight 6:48 AM AKST 7:35 PM AKST
Moon 10:41 PM AKST (1/30) 9:35 AM AKST (1/30)
Length of Visible Light 9h 16m
Length of Day
7h 34m
Waning Gibbous, 86% of the Moon is Illuminated
Jan 30
Waning Gibbous
Feb 3
Last Quarter
Feb 9
New
Feb 17
First Quarter
Feb 25
Full

Hourly Weather History & Observations

Time (AKST) Temp. Windchill Dew Point Humidity Pressure Visibility Wind Dir Wind Speed Gust Speed Precip Events Conditions
12:16 AM 12.2 °F 6.1 °F 6.8 °F 79% 29.86 in 10.0 mi NNW 3.5 mph - N/A   Overcast
12:36 AM 12.2 °F 4.3 °F 6.8 °F 79% 29.86 in 10.0 mi NW 4.6 mph - N/A   Overcast
12:56 AM 12.2 °F - 6.8 °F 79% 29.86 in 10.0 mi Calm Calm - N/A   Overcast
1:16 AM 12.2 °F - 6.8 °F 79% 29.85 in 10.0 mi Calm Calm - N/A   Overcast
1:36 AM 12.2 °F - 8.6 °F 85% 29.85 in 10.0 mi Calm Calm - N/A   Overcast
1:56 AM 12.2 °F 6.1 °F 8.6 °F 85% 29.85 in 10.0 mi West 3.5 mph - N/A   Overcast
2:16 AM 12.2 °F 6.1 °F 6.8 °F 79% 29.85 in 10.0 mi WNW 3.5 mph - N/A   Overcast
2:36 AM 12.2 °F 6.1 °F 6.8 °F 79% 29.85 in 10.0 mi West 3.5 mph - N/A   Overcast
2:56 AM 12.2 °F - 8.6 °F 85% 29.85 in 10.0 mi Calm Calm - N/A   Overcast
3:36 AM 12.2 °F 6.1 °F 8.6 °F 85% 29.83 in 10.0 mi West 3.5 mph - N/A   Overcast
3:56 AM 12.2 °F 6.1 °F 8.6 °F 85% 29.82 in 10.0 mi West 3.5 mph - N/A   Overcast
4:16 AM 12.2 °F 6.1 °F 8.6 °F 85% 29.82 in 10.0 mi WNW 3.5 mph - N/A   Overcast
4:36 AM 14.0 °F 8.2 °F 8.6 °F 79% 29.83 in 10.0 mi WSW 3.5 mph - N/A   Overcast
4:56 AM 14.0 °F - 8.6 °F 79% 29.82 in 10.0 mi Calm Calm - N/A   Mostly Cloudy
5:16 AM 14.0 °F 8.2 °F 8.6 °F 79% 29.82 in 10.0 mi West 3.5 mph - N/A   Clear
5:36 AM 14.0 °F 6.5 °F 8.6 °F 79% 29.82 in 9.0 mi West 4.6 mph - N/A   Scattered Clouds
5:56 AM 14.0 °F 6.5 °F 10.4 °F 86% 29.81 in 1.2 mi WNW 4.6 mph - N/A   Mostly Cloudy
6:16 AM 14.0 °F 8.2 °F 10.4 °F 86% 29.81 in 1.5 mi WNW 3.5 mph - 0.01 in   Overcast
6:36 AM 14.0 °F 8.2 °F 10.4 °F 86% 29.81 in 1.2 mi WNW 3.5 mph - 0.02 in   Overcast
6:56 AM 14.0 °F - 10.4 °F 86% 29.80 in 1.0 mi Calm Calm - 0.03 in   Overcast
7:16 AM 15.8 °F - 12.2 °F 86% 29.79 in 1.0 mi Calm Calm - 0.03 in   Overcast
7:36 AM 15.8 °F - 12.2 °F 86% 29.78 in 0.8 mi Calm Calm - 0.05 in   Overcast
7:56 AM 17.6 °F - 14.0 °F 86% 29.77 in 1.5 mi Calm Calm - 0.06 in   Overcast
8:16 AM 21.2 °F 13.6 °F 19.4 °F 93% 29.76 in 3.0 mi East 5.8 mph - 0.01 in   Overcast
8:36 AM 23.0 °F 18.4 °F 19.4 °F 86% 29.76 in 5.0 mi ENE 3.5 mph - 0.01 in   Overcast
8:56 AM 24.8 °F 16.9 °F 19.4 °F 80% 29.74 in 10.0 mi NE 6.9 mph - 0.01 in   Mostly Cloudy
9:16 AM 24.8 °F 15.3 °F 19.4 °F 80% 29.73 in 10.0 mi ENE 9.2 mph - N/A   Partly Cloudy
9:36 AM 24.8 °F 16.9 °F 19.4 °F 80% 29.73 in 10.0 mi East 6.9 mph - N/A   Partly Cloudy
9:56 AM 26.6 °F 20.0 °F 19.4 °F 74% 29.72 in 10.0 mi East 5.8 mph - N/A   Partly Cloudy
10:16 AM 26.6 °F - 17.6 °F 69% 29.72 in 10.0 mi Calm Calm - N/A   Partly Cloudy
10:36 AM 17.6 °F 9.3 °F 14.0 °F 86% 29.72 in 10.0 mi WSW 5.8 mph - N/A   Scattered Clouds
10:56 AM 17.6 °F 12.3 °F 14.0 °F 86% 29.72 in 10.0 mi WSW 3.5 mph - N/A   Clear
11:16 AM 17.6 °F 9.3 °F 12.2 °F 79% 29.72 in 10.0 mi West 5.8 mph - N/A   Clear
11:36 AM 17.6 °F 10.7 °F 12.2 °F 79% 29.71 in 10.0 mi West 4.6 mph - N/A   Clear
11:56 AM 17.6 °F 12.3 °F 14.0 °F 86% 29.71 in 10.0 mi West 3.5 mph - N/A   Clear
12:16 PM 17.6 °F 12.3 °F 14.0 °F 86% 29.71 in 10.0 mi WSW 3.5 mph - N/A   Clear
12:36 PM 17.6 °F 10.7 °F 14.0 °F 86% 29.71 in 10.0 mi West 4.6 mph - N/A   Clear
12:56 PM 19.4 °F 14.3 °F 15.8 °F 86% 29.71 in 10.0 mi WSW 3.5 mph - N/A   Clear
1:16 PM 19.4 °F 14.3 °F 15.8 °F 86% 29.71 in 10.0 mi West 3.5 mph - N/A   Clear
1:36 PM 19.4 °F - 15.8 °F 86% 29.70 in 10.0 mi Calm Calm - N/A   Clear
1:56 PM 19.4 °F - 15.8 °F 86% 29.68 in 10.0 mi Calm Calm - N/A   Clear
2:16 PM 21.2 °F 13.6 °F 15.8 °F 80% 29.67 in 10.0 mi East 5.8 mph - N/A   Scattered Clouds
2:36 PM 28.4 °F 21.2 °F 17.6 °F 64% 29.66 in 10.0 mi East 6.9 mph - N/A   Scattered Clouds
2:56 PM 32.0 °F 24.2 °F 19.4 °F 60% 29.65 in 10.0 mi East 9.2 mph - N/A   Mostly Cloudy
3:16 PM 33.8 °F 25.8 °F 21.2 °F 60% 29.64 in 10.0 mi East 10.4 mph - N/A   Overcast
3:36 PM 33.8 °F 27.7 °F 19.4 °F 56% 29.64 in 10.0 mi East 6.9 mph 16.1 mph N/A   Overcast
3:56 PM 33.8 °F 28.6 °F 17.6 °F 52% 29.64 in 10.0 mi ESE 5.8 mph - N/A   Overcast
4:16 PM 32.0 °F 24.8 °F 17.6 °F 55% 29.63 in 10.0 mi West 8.1 mph - N/A   Overcast
4:36 PM 23.0 °F - 17.6 °F 80% 29.63 in 10.0 mi Calm Calm - N/A   Scattered Clouds
4:56 PM 23.0 °F 15.8 °F 17.6 °F 80% 29.63 in 10.0 mi West 5.8 mph - N/A   Scattered Clouds
5:16 PM 21.2 °F 13.6 °F 17.6 °F 86% 29.64 in 10.0 mi WSW 5.8 mph - N/A   Mostly Cloudy
5:36 PM 21.2 °F 13.6 °F 17.6 °F 86% 29.64 in 10.0 mi WSW 5.8 mph - N/A   Overcast
5:56 PM 21.2 °F - 19.4 °F 93% 29.65 in 10.0 mi Calm Calm - N/A   Mostly Cloudy
6:16 PM 23.0 °F 17.0 °F 19.4 °F 86% 29.65 in 10.0 mi West 4.6 mph - N/A   Mostly Cloudy
6:36 PM 23.0 °F - 19.4 °F 86% 29.66 in 10.0 mi Calm Calm - N/A   Mostly Cloudy
6:56 PM 23.0 °F 17.0 °F 19.4 °F 86% 29.65 in 10.0 mi West 4.6 mph - N/A   Overcast
7:16 PM 23.0 °F - 19.4 °F 86% 29.65 in 10.0 mi Calm Calm - N/A   Mostly Cloudy
7:36 PM 23.0 °F - 19.4 °F 86% 29.66 in 10.0 mi Calm Calm - N/A   Overcast
7:56 PM 23.0 °F 15.8 °F 19.4 °F 86% 29.67 in 10.0 mi WSW 5.8 mph - N/A   Overcast
8:16 PM 23.0 °F 18.4 °F 19.4 °F 86% 29.68 in 10.0 mi West 3.5 mph - N/A   Overcast
8:36 PM 24.8 °F 20.5 °F 19.4 °F 80% 29.68 in 10.0 mi ESE 3.5 mph - N/A   Mostly Cloudy
8:56 PM 24.8 °F - 19.4 °F 80% 29.69 in 10.0 mi Calm Calm - N/A   Mostly Cloudy
9:16 PM 23.0 °F - 19.4 °F 86% 29.69 in 3.0 mi Calm Calm - N/A   Overcast
9:36 PM 24.8 °F 20.5 °F 21.2 °F 86% 29.69 in 2.0 mi East 3.5 mph - 0.01 in   Overcast
9:56 PM 23.0 °F 17.0 °F 19.4 °F 86% 29.69 in 4.0 mi East 4.6 mph - 0.03 in   Mostly Cloudy
10:16 PM 21.2 °F 12.6 °F 17.6 °F 86% 29.70 in 7.0 mi East 6.9 mph - 0.01 in   Overcast
10:36 PM 21.2 °F 16.4 °F 17.6 °F 86% 29.69 in 10.0 mi East 3.5 mph - 0.02 in   Overcast
10:56 PM 23.0 °F 17.0 °F 19.4 °F 86% 29.68 in 10.0 mi East 4.6 mph - 0.02 in   Overcast
11:16 PM 23.0 °F 17.0 °F 19.4 °F 86% 29.69 in 10.0 mi East 4.6 mph - 0.01 in   Overcast
11:36 PM 24.8 °F 20.5 °F 21.2 °F 86% 29.69 in 6.0 mi ENE 3.5 mph - 0.02 in   Mostly Cloudy
11:56 PM 24.8 °F - 21.2 °F 86% 29.69 in 5.0 mi Calm Calm - 0.02 in   Mostly Cloudy